Weather History for Syracuse, NY

Change the Weather History Date:

Tuesday, March 11, 2014

  Actual Average Record
Temperature  
Mean Temperature 43 °F 32 °F  
Max Temperature 50 °F 41 °F 67 °F (1977)
Min Temperature 36 °F 23 °F -1 °F (1948)
Degree Days  
Heating Degree Days 22 33  
Month to date heating degree days 476 380  
Since 1 July heating degree days 5568 5211  
Cooling Degree Days 0 0  
Month to date cooling degree days 0 0  
Year to date cooling degree days 0 0  
Moisture  
Dew Point 31 °F    
Average Humidity 66    
Maximum Humidity 85    
Minimum Humidity 46    
Precipitation  
Precipitation T in 0.09 in 0.91 in (1941)
Month to date precipitation 0.19 0.96  
Year to date precipitation 5.74 5.53  
Snow  
Snow 0.00 in 0.70 in 7.70 in (1992)
Month to date snowfall 4.9 8.7  
Since 1 July snowfall 114.8 110.6  
Snow Depth 4.00 in    
Sea Level Pressure  
Sea Level Pressure 29.63 in    
Wind  
Wind Speed 9 mph (West)    
Max Wind Speed 23 mph    
Max Gust Speed 28 mph    
Visibility 9 miles    
Events      
T = Trace of Precipitation, MM = Missing Value Source: NWS Daily Summary

Daily Weather History Graph

Daily Weather History Graph

Search for Another Location

Airport:

Trip Planner

Search our weather history database for the weather conditions in past years. The results will help you decide how hot, cold, wet, or windy it might be!

Date:

Astronomy

Mar. 11, 2014 Rise Set
Actual Time 7:23 AM EDT 7:05 PM EDT
Civil Twilight 6:55 AM EDT 7:34 PM EDT
Nautical Twilight 6:22 AM EDT 8:07 PM EDT
Astronomical Twilight 5:49 AM EDT 8:40 PM EDT
Moon 2:34 PM EDT (3/11) 4:21 AM EDT (3/11)
Length of Visible Light 12h 39m
Length of Day
11h 42m
Waxing Gibbous, 78% of the Moon is Illuminated
Mar 11
Waxing Gibbous
Mar 16
Full
Mar 23
Last Quarter
Mar 30
New
Apr 7
First Quarter

Hourly Weather History & Observations

Time (EDT) Temp. Windchill Dew Point Humidity Pressure Visibility Wind Dir Wind Speed Gust Speed Precip Events Conditions
12:54 AM 42.1 °F 36.6 °F 34.0 °F 73% 29.49 in 10.0 mi WSW 9.2 mph - N/A   Partly Cloudy
1:54 AM 41.0 °F 34.7 °F 34.0 °F 76% 29.52 in 9.0 mi WSW 10.4 mph - N/A   Partly Cloudy
2:54 AM 39.9 °F 29.7 °F 34.0 °F 79% 29.54 in 9.0 mi WSW 23.0 mph 27.6 mph N/A   Partly Cloudy
3:54 AM 37.9 °F 32.1 °F 33.1 °F 83% 29.54 in 8.0 mi WSW 8.1 mph - N/A   Mostly Cloudy
4:54 AM 37.0 °F 30.4 °F 32.0 °F 82% 29.55 in 8.0 mi WSW 9.2 mph - N/A   Mostly Cloudy
5:54 AM 37.0 °F 31.6 °F 32.0 °F 82% 29.56 in 8.0 mi West 6.9 mph - N/A   Overcast
6:54 AM 37.9 °F 31.5 °F 33.1 °F 83% 29.59 in 8.0 mi West 9.2 mph - N/A   Overcast
7:54 AM 37.9 °F 29.6 °F 32.0 °F 79% 29.62 in 8.0 mi West 13.8 mph - N/A   Overcast
8:07 AM 39.2 °F 32.0 °F 32.0 °F 75% 29.63 in 8.0 mi West 11.5 mph - N/A   Overcast
8:33 AM 39.2 °F 32.5 °F 32.0 °F 75% 29.63 in 8.0 mi West 10.4 mph - N/A   Overcast
8:54 AM 39.9 °F 32.5 °F 32.0 °F 73% 29.64 in 8.0 mi West 12.7 mph - N/A   Overcast
9:54 AM 39.9 °F 32.9 °F 32.0 °F 73% 29.65 in 9.0 mi West 11.5 mph - N/A   Overcast
10:54 AM 42.1 °F 34.9 °F 32.0 °F 67% 29.65 in 10.0 mi West 13.8 mph - N/A   Mostly Cloudy
11:54 AM 44.1 °F 38.1 °F 30.9 °F 60% 29.66 in 10.0 mi West 11.5 mph - N/A   Mostly Cloudy
12:54 PM 46.0 °F 40.2 °F 30.9 °F 56% 29.67 in 10.0 mi West 12.7 mph - N/A   Scattered Clouds
1:54 PM 48.0 °F - 30.9 °F 52% 29.66 in 10.0 mi West 12.7 mph - N/A   Scattered Clouds
2:54 PM 48.0 °F - 28.9 °F 48% 29.66 in 10.0 mi West 10.4 mph - N/A   Scattered Clouds
3:54 PM 48.9 °F - 30.0 °F 48% 29.65 in 10.0 mi West 8.1 mph - N/A   Scattered Clouds
4:54 PM 50.0 °F - 30.0 °F 46% 29.66 in 10.0 mi WNW 8.1 mph - N/A   Mostly Cloudy
5:54 PM 48.0 °F - 28.9 °F 48% 29.67 in 10.0 mi Calm Calm - N/A   Overcast
6:54 PM 45.0 °F 43.5 °F 30.0 °F 56% 29.68 in 10.0 mi NNW 3.5 mph - N/A   Overcast
7:54 PM 43.0 °F 41.3 °F 28.9 °F 58% 29.69 in 10.0 mi NNE 3.5 mph - N/A   Overcast
8:54 PM 42.1 °F 40.2 °F 28.0 °F 58% 29.69 in 10.0 mi East 3.5 mph - N/A   Overcast
9:54 PM 41.0 °F - 28.9 °F 62% 29.69 in 10.0 mi Calm Calm - N/A   Overcast
10:54 PM 39.0 °F 36.8 °F 28.9 °F 67% 29.71 in 10.0 mi NNW 3.5 mph - N/A   Overcast
11:54 PM 39.9 °F - 28.9 °F 65% 29.69 in 10.0 mi Calm Calm - 0.00 in   Light Drizzle